Location: Aldenham
(51.6667°N, 0.3500°W)
Time: 06:33:59
(UTC+00:00)

Altair - Pass Details

Date: 22 February 2026
Orbit: 1502 x 1682 km, 47.2° (Epoch: 9 March)

Event Time Altitude Azimuth Distance (km) Brightness Sun altitude
Rises 11:36:25 0° 282° (WNW) 4,744 9.9 27.7°
Reaches altitude 10° 11:42:40 10° 252° (WSW) 3,802 9.8 27.9°
Maximum altitude 11:45:10 11° 237° (WSW) 3,719 9.9 27.9°
Drops below altitude 10° 11:47:41 10° 221° (SW) 3,836 10.3 28.0°
Sets 11:54:09 0° 191° (S) 4,861 11.2 28.1°
